Location: Vancouver
(49.2500°N, 123.1330°W)
Time: 03:14:40
(UTC-07:00)

Transit 2A Rocket - Visible Passes

Search period start: 23 March 2017 00:00
Search period end: 02 April 2017 00:00
Orbit: 595 x 909 km, 66.7° (Epoch: 21 March)

Date Brightness Start Highest point End Pass type
(mag) Time Alt. Az. Time Alt. Az. Time Alt. Az.
23 Mar 4.9 20:07:29 10° SW 20:12:02 70° NW 20:16:24 10° NNE visible
23 Mar 7.4 21:52:34 10° WNW 21:55:21 16° NNW 21:58:06 10° N visible
24 Mar 7.7 01:22:53 10° N 01:23:13 11° N 01:23:13 11° N visible
24 Mar 7.0 21:09:07 10° W 21:12:37 22° NW 21:16:04 10° NNE visible
25 Mar 6.4 20:25:57 10° WSW 20:30:00 32° NW 20:33:56 10° NNE visible
25 Mar 7.7 22:13:06 10° NNW 22:13:55 10° NNW 22:14:43 10° N visible
26 Mar 7.6 01:39:53 10° NNW 01:40:18 12° N 01:40:18 12° N visible
26 Mar 7.4 21:28:53 10° NW 21:31:02 13° NNW 21:33:11 10° N visible
27 Mar 7.6 00:57:53 10° N 00:58:53 13° N 00:58:53 13° N visible
27 Mar 7.2 20:45:13 10° WNW 20:48:15 18° NNW 20:51:14 10° NNE visible
28 Mar 7.5 00:16:08 10° N 00:17:26 11° NNE 00:17:28 11° NNE visible
28 Mar 7.6 01:57:13 10° NNW 01:57:21 11° NNW 01:57:21 11° NNW visible
29 Mar 7.4 01:15:03 10° NNW 01:15:57 14° N 01:15:57 14° N visible
29 Mar 7.5 21:05:25 10° NW 21:06:46 11° NNW 21:08:07 10° N visible
30 Mar 7.3 00:32:59 10° N 00:34:32 15° N 00:34:32 15° N visible
30 Mar 7.2 20:21:28 10° WNW 20:23:54 15° NNW 20:26:21 10° N visible
30 Mar 7.3 23:51:02 10° N 23:53:08 13° NNE 23:53:08 13° NNE visible
31 Mar 7.4 01:32:29 10° NNW 01:33:03 13° NNW 01:33:03 13° NNW visible
31 Mar 7.4 23:09:31 10° N 23:10:17 10° NNE 23:11:04 10° NNE visible
01 Apr 7.2 00:50:16 10° NNW 00:51:39 18° N 00:51:39 18° N visible
